Flag for Germany

Past Weather in Eberswalde, Brandenburg, Germany — Yesterday and Last 2 Weeks

Now
75 °F

Passing clouds.


Feels Like: 77 °F
Forecast: 66 / 48 °F
Wind: 8 mph from Southwest

Location: Berlin-Tegel

Current Time: Jul 10, 2020 at 3:31:31 pm

Latest Report: Jul 10, 2020 at 2:50 pm


Visibility: N/A

Pressure: 29.71 "Hg

Humidity: 74%

Dew Point: 66 °F

Location of EberswaldeLocation

Past Weather in Eberswalde — Graph

°F

Eberswalde Temperature Yesterday

Maximum temperature yesterday: 68 °F (at 11:50 am)
Minimum temperature yesterday: 57 °F (at 12:50 am)
Average temperature yesterday: 62 °F

High & Low Weather Summary for the Past Weeks

 TemperatureHumidityPressure
High90 °F (Jun 27, 5:50 pm)100% (Jul 10, 1:20 am)30.15 "Hg (Jul 10, 1:20 am)
Low50 °F (Jul 7, 5:20 am)29% (Jun 27, 5:50 pm)29.68 "Hg (Jul 1, 7:20 pm)
Average68 °F65%29.88 "Hg
* Reported Jun 25 2:20 pm — Jul 10 2:20 pm, Eberswalde. Weather by CustomWeather, © 2020

Note: Actual official high and low records may vary slightly from our data, if they occured in-between our weather recording intervals... More about our weather records

Eberswalde Weather History for the Previous 24 Hours

Scroll right to see more
 ConditionsComfort  
Time TempWeatherWind HumidityBarometerVisibility
2:20 pm
Fri, Jul 10
72 °FPassing clouds.3 mph83%29.71 "HgN/A
1:50 pm73 °FThundershowers. Scattered clouds.5 mph74%29.71 "HgN/A
1:20 pm75 °FPassing clouds.3 mph69%29.71 "HgN/A
12:50 pm73 °FPassing clouds.7 mph74%29.71 "HgN/A
12:20 pm73 °FPassing clouds.8 mph69%29.71 "HgN/A
11:50 am72 °FPassing clouds.7 mph69%29.71 "HgN/A
11:20 am70 °FPassing clouds.5 mph78%29.71 "HgN/A
10:50 am70 °FPassing clouds.3 mph83%29.71 "HgN/A
10:20 am66 °FPassing clouds.1 mph88%29.74 "HgN/A
9:50 am64 °FPassing clouds.6 mph94%29.74 "HgN/A
9:20 am63 °FRain showers. Scattered clouds.5 mph100%29.77 "HgN/A
8:50 am63 °FRain. Passing clouds.3 mph100%29.77 "HgN/A
8:20 am63 °FLight rain. Passing clouds.6 mph94%29.80 "HgN/A
7:50 am64 °FLight rain. Passing clouds.7 mph88%29.80 "HgN/A
7:20 am63 °FLight rain. Passing clouds.6 mph94%29.80 "HgN/A
6:50 am63 °FPassing clouds.5 mph94%29.80 "HgN/A
6:20 am63 °FSunny.3 mph94%29.80 "Hg10 mi
5:50 am61 °FPassing clouds.2 mph100%29.80 "HgN/A
5:20 am61 °FScattered clouds.1 mph100%29.80 "HgN/A
4:50 am61 °FLight rain. Partly cloudy.7 mph100%29.80 "HgN/A
4:20 am61 °FLight rain. Passing clouds.3 mph100%29.83 "HgN/A
3:50 am61 °FPassing clouds.5 mph100%29.83 "HgN/A
3:20 am61 °FPassing clouds.5 mph100%29.83 "HgN/A
2:50 am61 °FPartly cloudy.5 mph94%29.83 "HgN/A
2:20 am61 °FPartly cloudy.5 mph94%29.83 "HgN/A
1:50 am61 °FPartly cloudy.6 mph94%29.86 "HgN/A
1:20 am61 °FPartly cloudy.3 mph100%29.86 "HgN/A
12:50 am61 °FPassing clouds.6 mph94%29.86 "HgN/A
12:20 am61 °FPassing clouds.7 mph94%29.86 "HgN/A
11:50 pm
Thu, Jul 9
63 °FPartly cloudy.7 mph88%29.86 "HgN/A
11:20 pm63 °FPassing clouds.7 mph88%29.86 "HgN/A
10:50 pm63 °FPassing clouds.6 mph88%29.86 "HgN/A
10:20 pm63 °FPassing clouds.6 mph94%29.86 "HgN/A
9:50 pm63 °FPassing clouds.8 mph94%29.86 "HgN/A
9:20 pm64 °FBroken clouds.10 mph88%29.86 "HgN/A
8:50 pm64 °FBroken clouds.8 mph88%29.83 "HgN/A
8:20 pm68 °FPartly sunny.7 mph83%29.83 "HgN/A
7:50 pm68 °FPassing clouds.9 mph83%29.83 "HgN/A
7:20 pm68 °FPassing clouds.8 mph83%29.83 "HgN/A
6:50 pm68 °FPassing clouds.13 mph83%29.83 "HgN/A
6:20 pm68 °FPassing clouds.13 mph88%29.83 "HgN/A
5:50 pm68 °FPassing clouds.10 mph88%29.83 "HgN/A
5:20 pm66 °FPartly sunny.8 mph88%29.83 "HgN/A
4:50 pm66 °FLight rain. Scattered clouds.10 mph94%29.86 "HgN/A
4:20 pm66 °FScattered clouds.8 mph88%29.86 "HgN/A
3:50 pm64 °FLight rain. Partly sunny.9 mph88%29.86 "HgN/A
3:20 pm63 °FPartly sunny.9 mph94%29.89 "HgN/A
Weather by CustomWeather, © 2020

See weather overview